Regional Weather Roundup
Issued by NWS

Home | Current Version | Previous Version | Graphics & Text | Print | Product List | Glossary On
Versions: 1 2 3 4 5 6 7 8 9 10 11 12 13 14 15 16 17 18 19 20 21 22 23 24 25 26 27 28 29 30 31 32 33 34 35 36 37 38 39 40 41 42 43 44 45 46 47 48 49
000
ASUS43 KMPX 040510
RWRMN
WEATHER ROUNDUP FOR MINNESOTA
NATIONAL WEATHER SERVICE TWIN CITIES/CHANHASSEN MN
1200 AM CDT FRI SEP 04 2015


NOTE: "FAIR" INDICATES FEW OR NO CLOUDS BELOW 12,000 FEET WITH NO
SIGNIFICANT WEATHER AND/OR OBSTRUCTIONS TO VISIBILITY. N/A MEANS
CURRENT SKY AND/OR WEATHER CONDITIONS ARE NOT AVAILABLE.

MNZ060>063-068>070-040600-
   Twin Cities Metro

CITY           SKY/WX    TMP DP  RH WIND       PRES   REMARKS
TWIN CITIES    CLEAR     74  69  85 E13       29.91R
ST PAUL        CLEAR     73  69  87 SE8       29.92R
CRYSTAL        CLEAR     76  69  79 E10       29.89S
BLAINE         CLEAR     73  72  94 E6        29.91S
LAKEVILLE      CLEAR     70  70 100 E3        29.91S FOG
EDEN PRAIRIE   CLEAR     76  71  85 E7        29.89S
SOUTH ST PAUL  CLEAR     74  68  83 SE5       29.92R
LAKE ELMO      FAIR      72  68  88 E5        29.93S
$$
MNZ001>005-007-008-013>017-022>024-027-028-040600-
   Northwest Minnesota

CITY           SKY/WX    TMP DP  RH WIND       PRES   REMARKS
BEMIDJI        PTCLDY    69  66  90 SE10      29.90S
HALLOCK        CLOUDY    81  72  74 S21G28    29.75S
ROSEAU         PTCLDY    73  66  78 S21G26    29.80R
WARROAD        PTCLDY    72  66  83 SE13G20   29.83S
THIEF RVR FALL CLOUDY    75  72  88 SE14      29.82S
CROOKSTON      CLOUDY    79  72  78 S16       29.80S
FOSSTON        MOCLDY    72  66  83 SE12      29.85F
DETROIT LAKES  MOCLDY    73  70  88 SE12      29.87S
MOORHEAD       MOCLDY    77  73  88 SE8       29.80F
PARK RAPIDS    MOCLDY    72  67  84 SE8       29.90S
MAHNOMEN       FAIR      74  70  87 SE10G18   29.85S
$$
MNZ006-009>011-018-025>026-040600-
   North Central Minnesota

CITY           SKY/WX    TMP DP  RH WIND       PRES   REMARKS
BAUDETTE       PTCLDY    69  62  78 SE10      29.88R
FLAG ISLAND    CLEAR     72  64  78 S14       29.85R
INTL FALLS     CLEAR     64  57  78 SE6       29.93R
WASKISH        FAIR      70  64  83 E5        29.89R
BIG FORK       CLEAR     64  57  77 SE6       29.94F
LONGVILLE      CLEAR     64  63  94 SE3       29.93R
GRAND RAPIDS     N/A     61  54  77 SE7       29.96S
ORR            CLEAR     61  50  67 CALM      29.95R
COOK           CLEAR     57  52  82 SE3       29.98S
WALKER         FAIR      69  66  90 SE7       29.91S
$$
MNZ012-019>021-037-040600-
   Northeast Minnesota

CITY           SKY/WX    TMP DP  RH WIND       PRES   REMARKS
DULUTH         CLEAR     57  51  80 E7        29.99S
ELY            CLEAR     57  50  77 SE5       30.01R
HIBBING        CLEAR     55  49  80 E6        29.98S
EVELETH        CLEAR     55  50  82 CALM      30.00S
DULUTH HARBOR  CLEAR     61  57  88 E9        30.00R
TWO HARBORS    CLEAR     61  54  77 N6        29.99R
SILVER BAY     CLEAR     59  54  82 N3        30.00R
GRAND MARAIS     N/A     59  54  83 CALM      30.01R
G MARAIS ARPRT CLEAR     59  52  77 E3        30.06S
$$
MNZ029>031-032-039>041-046>048-054>057-064-040600-
   West Central Minnesota

CITY           SKY/WX    TMP DP  RH WIND       PRES   REMARKS
FERGUS FALLS   PTCLDY    77  72  83 SE13      29.82S
WHEATON        MOCLDY    73  72  94 SE9G16    29.82S
MORRIS         PTCLDY    75  73  94 SE13      29.82F FOG
ALEXANDRIA     CLEAR     73  71  93 SE14      29.88F
ELBOW LAKE     FAIR      75  72  91 SE12      29.84S
WADENA         CLOUDY    73  68  83 SE12      29.88F
GLENWOOD       CLEAR     73  72  94 E12       29.88S
APPLETON       PTCLDY    77  73  88 SE10      29.81F
BENSON         CLEAR     75  72  88 SE8       29.84S
ORTONVILLE     PTCLDY    77  73  88 SE9       29.81F
MADISON        PTCLDY    75  73  94 SE6       29.81F FOG
WILLMAR        FAIR      75  73  94 SE13      29.87S
$$
MNZ033>034-036-042>043-049>051-058-059-040600-
   Central Minnesota

CITY           SKY/WX    TMP DP  RH WIND       PRES   REMARKS
ST CLOUD       CLEAR     72  68  87 E8        29.90S
SAUK CENTRE    FAIR      73  70  92 E7        29.89S
PAYNESVILLE    CLEAR     74  72  93 NE6       29.89S
AITKIN         CLEAR     61  55  82 CALM      29.93F
PINE RIVER     CLEAR     66  66 100 E7        29.95F
BRAINERD       PTCLDY    68  65  90 E5        29.92S
STAPLES        CLOUDY    73  64  73 SE8       29.90S
LONG PRAIRIE   FAIR      72  68  88 E10       29.90S
LITTLE FALLS   CLOUDY    73  64  73 E7        29.90F
LITCHFIELD     CLEAR     75  73  94 E9        29.89S
BUFFALO        CLEAR     73  68  87 E3        29.90F
MAPLE LAKE     CLEAR     73  71  92 E6        29.90F
$$
MNZ037-044-045-052-053-040600-
   East Central Minnesota

CITY           SKY/WX    TMP DP  RH WIND       PRES   REMARKS
PRINCETON      CLEAR     73  68  83 CALM      29.92S
MORA           PTCLDY    64  63  94 CALM      29.96S
CAMBRIDGE      CLOUDY    75  64  69 E6        29.91S
RUSH CITY      PTCLDY    69  66  89 E3        29.94S
MOOSE LAKE     CLEAR     55  54  94 NE5       29.96R
HINCKLEY       FAIR      63  63 100 CALM      29.95S
CLOQUET        CLEAR     57  52  82 E5        29.98S
MCGREGOR       CLEAR     59  55  88 E6        29.95F
$$
MNZ071>073-080-081-089-090-097-098-040600-
   Southwest Minnesota

CITY           SKY/WX    TMP DP  RH WIND       PRES   REMARKS
MONTEVIDEO     CLEAR     75  75 100 SE7       29.85S FOG
GRANITE FALLS  CLEAR     76  74  95 E6        29.85S
CANBY          PTCLDY    73  71  93 SE6       29.83S
MARSHALL       PTCLDY    75  70  83 SE10      29.84F
REDWOOD FALLS  CLEAR     77  74  90 E8        29.85S
OLIVIA         CLEAR     73  70  88 SE7       29.85F
PIPESTONE      PTCLDY    75  72  88 SE9       29.84F
WINDOM         CLEAR     77  72  83 SE8       29.87S
WORTHINGTON    PTCLDY    72  70  94 SE6       29.86F
JACKSON        CLEAR     75  72  88 SE7       29.88S
TRACY          PTCLDY    74  73  96 SE6       29.85F
SLAYTON        PTCLDY    72  72 100 CALM      29.87S
$$
MNZ065>067-074>077-082>085-091>093-040600-
   South Central Minnesota

CITY           SKY/WX    TMP DP  RH WIND       PRES   REMARKS
MANKATO        CLEAR     77  73  88 SE8       29.88F
NEW ULM        CLEAR     75  73  94 SE7       29.87S
ST JAMES       CLEAR     75  73  94 SE6       29.88S
FAIRMONT       CLEAR     75  66  73 S7        29.88S
GLENCOE        CLEAR     76  74  95 E8        29.88S
FARIBAULT      CLEAR     75  73  94 E6        29.91S
OWATONNA       CLEAR     75  72  88 SE6       29.91S
WASECA         CLEAR     73  72  94 SE7       29.91S
ALBERT LEA     PTCLDY    75  73  94 SE5       29.91S
$$
MNZ078>079-086>088-094>096-040600-
   Southeast Minnesota

CITY           SKY/WX    TMP DP  RH WIND       PRES   REMARKS
ROCHESTER      PTCLDY    74  73  97 SE9       29.94S FOG
RED WING       CLEAR     73  68  83 E7        29.91S
STANTON        CLEAR     76  71  83 E7        29.90S
DODGE CENTER   PTCLDY    73  72  94 SE5       29.93S FOG
WINONA         CLEAR     73  68  83 SE8       29.94S
AUSTIN         PTCLDY    73  72  94 SE5       29.92S
PRESTON        MOCLDY    75  72  90 E6        29.95S
$$
ABBREVIATIONS USED IN REMARKS
   TC - TEMPERATURES IN CELSIUS
  WCI - WIND CHILL INDEX
   HX - HEAT INDEX
  VSB - VISIBILITY
$$


USA.gov is the U.S. government's official web portal to all federal, state and local government web resources and services.